| time (UTC) | temp F | wind direction | speed MPH | gust MPH | rain 1hr in | rain 24hr in | rain mn in | humidity % | barometer mb |
| 20260831095113 | 69 | 174 | 0.0 | 0.0 | 0.00 | 0.00 | 0.00 | 97 | 994.9 |
| 20260831093612 | 68 | 177 | 0.0 | 0.0 | 0.00 | 0.00 | 0.00 | 97 | 995.1 |
| 20260831092111 | 68 | 204 | 0.0 | 0.0 | 0.00 | 0.00 | 0.00 | 97 | 995.4 |
| 20260831090607 | 68 | 154 | 0.0 | 1.0 | 0.00 | 0.00 | 0.00 | 96 | 995.3 |
| 20260831085105 | 68 | 192 | 0.0 | 0.0 | 0.00 | 0.00 | 0.00 | 96 | 995.0 |
| 20260831083605 | 69 | 180 | 0.0 | 1.0 | 0.00 | 0.00 | 0.00 | 96 | 995.0 |
| 20260831082105 | 69 | 174 | 0.0 | 0.0 | 0.00 | 0.00 | 0.00 | 95 | 994.9 |
| 20260831080603 | 69 | 138 | 0.0 | 1.0 | 0.00 | 0.00 | 0.00 | 94 | 995.0 |
| 20260831075100 | 70 | 173 | 0.0 | 1.0 | 0.00 | 0.00 | 0.00 | 93 | 995.0 |
| 20260831073555 | 71 | 156 | 1.0 | 2.0 | 0.00 | 0.00 | 0.00 | 92 | 995.1 |
| 20260831072053 | 71 | 188 | 2.0 | 3.0 | 0.00 | 0.00 | 0.00 | 91 | 995.2 |
| 20260831070551 | 71 | 234 | 1.0 | 3.0 | 0.00 | 0.00 | 0.00 | 91 | 995.4 |
| 20260831065050 | 71 | 219 | 2.0 | 3.0 | 0.00 | 0.00 | 0.00 | 91 | 995.5 |
| 20260831063548 | 70 | 208 | 0.0 | 1.0 | 0.00 | 0.00 | 0.00 | 94 | 995.4 |
| 20260831062048 | 69 | 171 | 0.0 | 0.0 | 0.00 | 0.00 | 0.00 | 95 | 995.0 |
| 20260831060543 | 69 | 167 | 0.0 | 1.0 | 0.00 | 0.00 | 0.00 | 95 | 994.9 |
| 20260831055041 | 70 | 178 | 0.0 | 0.0 | 0.00 | 0.00 | 0.00 | 94 | 994.9 |
| 20260831053538 | 69 | 181 | 0.0 | 0.0 | 0.00 | 0.00 | 0.00 | 94 | 995.3 |
| 20260831052037 | 69 | 176 | 0.0 | 0.0 | 0.00 | 0.00 | 0.00 | 94 | 995.1 |
| 20260831050535 | 70 | 148 | 1.0 | 1.0 | 0.00 | 0.00 | 0.00 | 93 | 995.3 |
| 20260831045034 | 70 | 191 | 0.0 | 0.0 | 0.00 | 0.00 | 0.00 | 92 | 995.3 |
| 20260831043531 | 71 | 170 | 0.0 | 0.0 | 0.00 | 0.00 | 0.00 | 92 | 995.5 |
| 20260831042026 | 72 | 192 | 3.0 | 3.0 | 0.00 | 0.00 | 0.00 | 88 | 995.6 |
| 20260831040522 | 72 | 146 | 3.0 | 3.0 | 0.00 | 0.00 | 0.00 | 89 | 995.4 |
| 20260831035020 | 71 | 118 | 2.0 | 2.0 | 0.00 | 0.95 | 0.95 | 90 | 995.2 |
| 20260831033517 | 74 | 158 | 2.0 | 4.0 | 0.00 | 0.95 | 0.95 | 85 | 995.2 |
| 20260831032013 | 74 | 155 | 1.0 | 2.0 | 0.00 | 0.95 | 0.95 | 84 | 995.3 |
| 20260831030511 | 74 | 189 | 1.0 | 2.0 | 0.00 | 0.95 | 0.95 | 84 | 995.1 |
| 20260831025010 | 74 | 212 | 2.0 | 3.0 | 0.00 | 0.95 | 0.95 | 84 | 995.5 |
| 20260831023509 | 74 | 209 | 1.0 | 3.0 | 0.00 | 0.95 | 0.95 | 84 | 995.6 |
| 20260831022005 | 75 | 189 | 2.0 | 3.0 | 0.00 | 0.95 | 0.95 | 83 | 995.2 |
| 20260831020500 | 75 | 224 | 3.0 | 4.0 | 0.00 | 0.95 | 0.95 | 81 | 994.7 |
| 20260831014957 | 75 | 261 | 2.0 | 3.0 | 0.00 | 0.95 | 0.95 | 82 | 995.1 |
| 20260831013455 | 75 | 240 | 1.0 | 4.0 | 0.00 | 0.95 | 0.95 | 82 | 994.8 |
| 20260831011955 | 75 | 208 | 3.0 | 6.0 | 0.00 | 0.95 | 0.95 | 83 | 995.0 |
| 20260831010452 | 75 | 174 | 5.0 | 6.0 | 0.00 | 0.95 | 0.95 | 83 | 994.8 |
| 20260831004949 | 75 | 262 | 3.0 | 7.0 | 0.00 | 0.95 | 0.95 | 83 | 994.7 |
| 20260831003449 | 75 | 181 | 1.0 | 7.0 | 0.00 | 0.95 | 0.95 | 83 | 994.6 |
| 20260831001949 | 75 | 174 | 1.0 | 3.0 | 0.00 | 0.95 | 0.95 | 83 | 994.5 |
| 20260831000448 | 75 | 220 | 6.0 | 8.0 | 0.00 | 0.95 | 0.95 | 83 | 994.6 |
| 20260830234943 | 75 | 246 | 4.0 | 8.0 | 0.00 | 0.95 | 0.95 | 82 | 994.8 |
| 20260830233440 | 76 | 193 | 5.0 | 7.0 | 0.00 | 0.95 | 0.95 | 82 | 994.6 |
| 20260830231940 | 76 | 126 | 2.0 | 7.0 | 0.00 | 0.95 | 0.95 | 82 | 994.7 |
| 20260830230436 | 77 | 219 | 4.0 | 6.0 | 0.00 | 0.95 | 0.95 | 80 | 994.8 |
| 20260830224931 | 78 | 261 | 2.0 | 9.0 | 0.00 | 0.95 | 0.95 | 79 | 994.6 |
| 20260830223429 | 78 | 218 | 7.0 | 9.0 | 0.00 | 0.95 | 0.95 | 77 | 994.6 |
| 20260830221929 | 78 | 208 | 4.0 | 6.0 | 0.00 | 0.95 | 0.95 | 77 | 994.9 |
| 20260830220427 | 78 | 216 | 4.0 | 14.0 | 0.00 | 0.95 | 0.95 | 75 | 994.9 |
| 20260830214926 | 79 | 172 | 4.0 | 8.0 | 0.00 | 0.95 | 0.95 | 73 | 994.7 |
| 20260830213423 | 80 | 200 | 5.0 | 14.0 | 0.00 | 0.95 | 0.95 | 70 | 994.9 |
| 20260830211919 | 81 | 129 | 6.0 | 9.0 | 0.00 | 0.95 | 0.95 | 67 | 995.0 |
| 20260830210415 | 82 | 141 | 9.0 | 13.0 | 0.00 | 0.95 | 0.95 | 65 | 995.0 |
| 20260830204913 | 83 | 185 | 4.0 | 10.0 | 0.00 | 0.95 | 0.95 | 64 | 995.0 |
| 20260830203410 | 83 | 113 | 7.0 | 10.0 | 0.00 | 0.95 | 0.95 | 62 | 995.2 |
| 20260830201906 | 83 | 235 | 9.0 | 17.0 | 0.00 | 0.95 | 0.95 | 59 | 995.1 |
| 20260830200401 | 84 | 200 | 6.0 | 11.0 | 0.00 | 0.95 | 0.95 | 57 | 995.0 |
| 20260830194900 | 86 | 252 | 6.0 | 10.0 | 0.00 | 0.95 | 0.95 | 54 | 994.9 |
| 20260830193359 | 86 | 237 | 7.0 | 10.0 | 0.00 | 0.95 | 0.95 | 56 | 994.5 |
| 20260830191857 | 85 | 192 | 7.0 | 13.0 | 0.00 | 0.95 | 0.95 | 56 | 994.8 |
| 20260830190353 | 84 | 255 | 7.0 | 10.0 | 0.00 | 0.95 | 0.95 | 62 | 994.6 |
| 20260830184848 | 84 | 290 | 3.0 | 9.0 | 0.00 | 0.95 | 0.95 | 64 | 994.6 |
| 20260830183348 | 82 | 211 | 3.0 | 10.0 | 0.00 | 0.95 | 0.95 | 68 | 994.8 |
| 20260830181847 | 82 | 174 | 7.0 | 14.0 | 0.00 | 0.95 | 0.95 | 67 | 994.5 |
| 20260830180342 | 82 | 190 | 6.0 | 7.0 | 0.00 | 0.95 | 0.95 | 68 | 994.3 |
| 20260830174842 | 81 | 181 | 2.0 | 6.0 | 0.00 | 0.95 | 0.95 | 70 | 994.6 |
| 20260830173340 | 82 | 249 | 5.0 | 10.0 | 0.00 | 0.95 | 0.95 | 70 | 994.6 |
| 20260830171839 | 80 | 166 | 6.0 | 9.0 | 0.00 | 0.95 | 0.95 | 73 | 994.5 |
| 20260830170335 | 79 | 263 | 4.0 | 7.0 | 0.00 | 0.95 | 0.95 | 78 | 995.1 |
| 20260830164832 | 78 | 229 | 4.0 | 8.0 | 0.00 | 0.95 | 0.95 | 79 | 995.2 |
| 20260830163331 | 75 | 196 | 2.0 | 8.0 | 0.00 | 0.95 | 0.95 | 83 | 995.2 |
| 20260830161828 | 74 | 170 | 8.0 | 10.0 | 0.00 | 0.95 | 0.95 | 85 | 995.4 |
| 20260830160324 | 74 | 204 | 4.0 | 11.0 | 0.00 | 0.95 | 0.95 | 87 | 996.0 |
| 20260830154821 | 70 | 260 | 3.0 | 9.0 | 0.00 | 0.95 | 0.95 | 95 | 995.5 |
| 20260830153320 | 68 | 202 | 2.0 | 7.0 | 0.00 | 0.95 | 0.95 | 98 | 995.8 |
| 20260830151820 | 68 | 204 | 5.0 | 8.0 | 0.00 | 0.95 | 0.95 | 98 | 996.0 |
| 20260830150320 | 67 | 187 | 6.0 | 15.0 | 0.00 | 0.95 | 0.95 | 98 | 995.7 |
| 20260830144817 | 67 | 227 | 6.0 | 13.0 | 0.00 | 0.95 | 0.95 | 99 | 995.7 |
| 20260830143314 | 66 | 155 | 7.0 | 13.0 | 0.42 | 0.94 | 0.94 | 99 | 996.0 |
| 20260830141810 | 66 | 186 | 5.0 | 10.0 | 0.00 | 0.85 | 0.85 | 99 | 996.3 |
| 20260830140306 | 66 | 155 | 4.0 | 13.0 | 0.12 | 0.85 | 0.85 | 99 | 997.0 |
| 20260830134804 | 65 | 182 | 5.0 | 8.0 | 0.05 | 0.83 | 0.83 | 99 | 997.2 |
| 20260830133301 | 65 | 171 | 0.0 | 2.0 | 0.42 | 0.79 | 0.79 | 99 | 997.7 |
| 20260830131757 | 65 | 164 | 0.0 | 0.0 | 0.12 | 0.68 | 0.68 | 99 | 997.8 |
| 20260830130253 | 65 | 187 | 0.0 | 0.0 | 0.17 | 0.66 | 0.66 | 99 | 998.0 |
| 20260830124751 | 65 | 185 | 0.0 | 0.0 | 0.12 | 0.62 | 0.62 | 99 | 998.2 |
| 20260830123251 | 65 | 192 | 0.0 | 0.0 | 0.07 | 0.58 | 0.58 | 99 | 997.8 |
| 20260830121750 | 65 | 24 | 3.0 | 3.0 | 0.38 | 0.54 | 0.54 | 99 | 998.2 |
| 20260830120247 | 65 | 168 | 0.0 | 0.0 | 0.12 | 0.46 | 0.46 | 99 | 998.0 |
| 20260830114747 | 65 | 164 | 0.0 | 0.0 | 0.38 | 0.41 | 0.41 | 99 | 997.6 |
| 20260830113243 | 65 | 146 | 1.0 | 1.0 | 0.19 | 0.34 | 0.34 | 98 | 997.9 |
| 20260830111743 | 65 | 207 | 1.0 | 2.0 | 0.12 | 0.29 | 0.29 | 98 | 997.8 |
| 20260830110240 | 65 | 282 | 2.0 | 2.0 | 0.00 | 0.27 | 0.27 | 97 | 996.8 |
| 20260830104738 | 66 | 205 | 0.0 | 0.0 | 0.05 | 0.24 | 0.24 | 96 | 996.8 |
| 20260830103235 | 66 | 173 | 2.0 | 6.0 | 0.12 | 0.23 | 0.23 | 93 | 996.5 |
| 20260830101731 | 66 | 195 | 2.0 | 9.0 | 0.00 | 0.21 | 0.21 | 93 | 996.1 |
| 20260830100226 | 66 | 162 | 6.0 | 8.0 | 0.07 | 0.21 | 0.21 | 94 | 995.2 |